Weather History for Chamberlain, SD

Change the Weather History Date:

Wednesday, October 17, 2012

  Actual Average Record
Temperature  
Mean Temperature 54 °F -  
Max Temperature 62 °F 60 °F 80 °F (2003)
Min Temperature 46 °F 35 °F 24 °F (1999)
Degree Days  
Heating Degree Days 11    
Growing Degree Days 4 (Base 50)    
Moisture  
Dew Point 29 °F    
Average Humidity 45    
Maximum Humidity 80    
Minimum Humidity 18    
Precipitation  
Precipitation 0.02 in - - ()
Sea Level Pressure  
Sea Level Pressure 29.45 in    
Wind  
Wind Speed 26 mph (NW)    
Max Wind Speed 40 mph    
Max Gust Speed 59 mph    
Averages and records for this station are not official NWS values.
T = Trace of Precipitation, MM = Missing Value Source: NWS Daily Summary

Daily Weather History Graph

Daily Weather History Graph

Search for Another Location

Airport:

Trip Planner

Search our weather history database for the weather conditions in past years. The results will help you decide how hot, cold, wet, or windy it might be!

Date:

Astronomy

Oct. 17, 2012 Rise Set
Actual Time 7:54 AM CDT 6:49 PM CDT
Civil Twilight 7:25 AM CDT 7:18 PM CDT
Nautical Twilight 6:52 AM CDT 7:51 PM CDT
Astronomical Twilight 6:19 AM CDT 8:25 PM CDT
Moon 10:36 AM CDT (10/17) 8:20 PM CDT (10/17)
Length of Visible Light 11h 52m
Length of Day
10h 54m
Waxing Crescent, 7% of the Moon is Illuminated
Oct 17
Waxing Crescent
Oct 21
First Quarter
Oct 29
Full
Nov 6
Last Quarter
Nov 13
New

Hourly Weather History & Observations

Time (CDT) Temp. Dew Point Humidity Pressure Visibility Wind Dir Wind Speed Gust Speed Precip Events Conditions
12:52 AM 62.1 °F 42.1 °F 48% 29.20 in - NW 19.6 mph 28.8 mph N/A   Unknown
1:52 AM 57.9 °F 48.9 °F 72% 29.24 in - WNW 29.9 mph 43.7 mph N/A   Unknown
2:52 AM 55.9 °F 50.0 °F 80% 29.31 in - WNW 24.2 mph 39.1 mph N/A   Unknown
3:52 AM 53.1 °F 46.0 °F 77% 29.35 in - NW 20.7 mph 36.8 mph 0.01 in   Unknown
4:52 AM 53.1 °F 45.0 °F 74% 29.38 in - WNW 20.7 mph 28.8 mph 0.01 in   Unknown
5:52 AM 50.0 °F 37.0 °F 61% 29.41 in - WNW 16.1 mph 23.0 mph N/A   Unknown
6:52 AM 48.0 °F 34.0 °F 58% 29.42 in - WNW 15.0 mph 23.0 mph N/A   Unknown
7:52 AM 48.9 °F 35.1 °F 59% 29.43 in - NW 27.6 mph 46.0 mph N/A   Unknown
8:52 AM 48.0 °F 37.0 °F 66% 29.45 in - WNW 25.3 mph 34.5 mph N/A   Unknown
9:52 AM 48.9 °F 36.0 °F 61% 29.46 in - WNW 29.9 mph 44.9 mph N/A   Unknown
10:52 AM 46.9 °F 39.0 °F 74% 29.49 in - WNW 20.7 mph 36.8 mph N/A   Unknown
11:52 AM 52.0 °F 33.1 °F 49% 29.48 in - WNW 28.8 mph 42.6 mph N/A   Unknown
12:52 PM 52.0 °F 28.0 °F 40% 29.48 in - NW 27.6 mph 39.1 mph N/A   Unknown
1:52 PM 55.0 °F 25.0 °F 31% 29.48 in - NW 34.5 mph 54.1 mph N/A   Unknown
2:52 PM 59.0 °F 23.0 °F 25% 29.47 in - NW 40.3 mph 50.6 mph N/A   Unknown
3:52 PM 59.0 °F 15.1 °F 18% 29.49 in - NW 40.3 mph 58.7 mph N/A   Unknown
4:52 PM 57.0 °F 16.0 °F 20% 29.52 in - NW 34.5 mph 51.8 mph N/A   Unknown
5:52 PM 57.9 °F 15.1 °F 19% 29.52 in - NW 33.4 mph 49.5 mph N/A   Unknown
6:52 PM 55.0 °F 15.1 °F 21% 29.54 in - NW 39.1 mph 56.4 mph N/A   Unknown
7:52 PM 54.0 °F 15.1 °F 22% 29.55 in - NW 33.4 mph 43.7 mph N/A   Unknown
8:52 PM 53.1 °F 16.0 °F 23% 29.55 in - WNW 34.5 mph 43.7 mph N/A   Unknown
9:52 PM 52.0 °F 16.0 °F 24% 29.57 in - WNW 29.9 mph 41.4 mph N/A   Unknown
10:52 PM 51.1 °F 16.0 °F 25% 29.57 in - WNW 34.5 mph 44.9 mph N/A   Unknown
11:52 PM 51.1 °F 19.0 °F 28% 29.55 in - NW 27.6 mph 50.6 mph N/A   Unknown